Saginaw, MI

1:19 PM EDT on August 18, 2019 (GMT -0400)
MBS International

Weather History for KMBS - July, 2019

Change the Weather History Date:

Monday, July 22, 2019

  Actual Average Record
Temperature  
Mean Temperature 70 °F 71 °F  
Max Temperature 77 °F 82 °F 91 °F (2001)
Min Temperature 62 °F 60 °F 52 °F (2000)
Degree Days  
Heating Degree Days 0    
Month to date heating degree days 0  
Since 1 June heating degree days 56  
Since 1 July heating degree days 0  
Cooling Degree Days 5    
Month to date cooling degree days 229  
Year to date cooling degree days 317  
Since 1 June cooling degree days 313  
Growing Degree Days 20 (Base 50)    
Moisture  
Dew Point 57 °F    
Average Humidity 65    
Maximum Humidity 76    
Minimum Humidity 54    
Precipitation  
Precipitation 0.00 in 0.09 in 0.64 in (2010)
Month to date precipitation 1.25 1.80  
Year to date precipitation 15.38 16.43  
Snow  
Snow 0.00 in 0.00 in - ()
Month to date snowfall 0.0 0.0  
Since 1 June snowfall 0.0 0.0  
Since 1 July snowfall 0.0 0.0  
Snow Depth 0.00 in    
Sea Level Pressure  
Sea Level Pressure 29.99 in    
Wind  
Wind Speed 9 mph (North)    
Max Wind Speed 16 mph    
Max Gust Speed 20 mph    
Visibility 10 miles    
Events      
T = Trace of Precipitation, MM = Missing Value Source: NWS Daily Summary

Daily Weather History Graph

Daily Weather History Graph

Search for Another Location

Airport or City:

Astronomy

Jul. 22, 2019 Rise Set
Actual Time 6:15 AM EDT 9:09 PM EDT
Civil Twilight 5:41 AM EDT 9:43 PM EDT
Nautical Twilight 4:58 AM EDT 10:26 PM EDT
Astronomical Twilight 4:07 AM EDT 11:16 PM EDT
Moon No Moon Rise 11:39 AM EDT (7/22)
Length of Visible Light 16h 01m
Length of Day
14h 54m
Waning Gibbous, 72% of the Moon is Illuminated
Jul 22
Waning Gibbous
Jul 24
Last Quarter
Jul 31
New
Aug 7
First Quarter
Aug 15
Full

Hourly Weather History & Observations

Time (EDT) Temp. Dew Point Humidity Pressure Visibility Wind Dir Wind Speed Gust Speed Precip Events Conditions
12:53 AM 70.0 °F 57.9 °F 65% 29.95 in 10.0 mi ENE 6.9 mph - N/A   Scattered Clouds
1:53 AM 68.0 °F 60.1 °F 76% 29.96 in 10.0 mi East 4.6 mph - N/A   Clear
2:32 AM 68.0 °F 63.0 °F 84% 29.99 in 10.0 mi North 6.9 mph - N/A   Mostly Cloudy
3:44 AM 66.0 °F 55.9 °F 70% 29.98 in 10.0 mi North 9.2 mph - N/A   Scattered Clouds
3:53 AM 64.9 °F 55.9 °F 73% 29.96 in 10.0 mi North 8.1 mph - N/A   Partly Cloudy
4:53 AM 64.0 °F 55.9 °F 75% 29.97 in 10.0 mi NNW 8.1 mph - N/A   Mostly Cloudy
5:53 AM 64.0 °F 54.0 °F 70% 29.98 in 10.0 mi NNW 6.9 mph - N/A   Overcast
6:53 AM 63.0 °F 54.0 °F 72% 29.99 in 10.0 mi NNW 9.2 mph - N/A   Mostly Cloudy
7:53 AM 64.0 °F 54.0 °F 70% 29.99 in 10.0 mi NNW 6.9 mph - N/A   Clear
8:53 AM 64.9 °F 53.1 °F 65% 29.99 in 10.0 mi NNW 11.5 mph - N/A   Clear
9:53 AM 64.9 °F 54.0 °F 68% 29.99 in 10.0 mi NNW 10.4 mph - N/A   Clear
10:53 AM 64.9 °F 55.0 °F 70% 30.00 in 10.0 mi NW 12.7 mph - N/A   Clear
11:53 AM 69.1 °F 57.0 °F 65% 29.99 in 10.0 mi Variable 6.9 mph - N/A   Clear
12:53 PM 70.0 °F 59.0 °F 68% 29.99 in 10.0 mi NE 13.8 mph - N/A   Overcast
1:34 PM 73.9 °F 59.0 °F 59% 30.00 in 10.0 mi NE 12.7 mph - N/A   Overcast
1:53 PM 73.0 °F 59.0 °F 61% 29.99 in 10.0 mi NE 8.1 mph - N/A   Overcast
2:53 PM 77.0 °F 60.1 °F 56% 29.98 in 10.0 mi Variable 6.9 mph - N/A   Scattered Clouds
3:53 PM 75.9 °F 59.0 °F 56% 29.97 in 10.0 mi NE 11.5 mph - N/A   Partly Cloudy
4:53 PM 77.0 °F 59.0 °F 54% 29.97 in 10.0 mi NE 12.7 mph - N/A   Scattered Clouds
5:53 PM 75.0 °F 59.0 °F 57% 29.98 in 10.0 mi NE 8.1 mph - N/A   Clear
6:53 PM 75.0 °F 57.9 °F 55% 29.98 in 10.0 mi NNE 6.9 mph - N/A   Clear
7:53 PM 73.0 °F 57.0 °F 57% 29.99 in 10.0 mi ENE 6.9 mph - N/A   Clear
8:53 PM 71.1 °F 57.0 °F 61% 30.00 in 10.0 mi NE 3.5 mph - N/A   Clear
9:53 PM 66.0 °F 57.9 °F 75% 30.01 in 10.0 mi WNW 5.8 mph - N/A   Mostly Cloudy
10:53 PM 66.9 °F 54.0 °F 63% 30.02 in 10.0 mi NW 9.2 mph - N/A   Scattered Clouds
11:53 PM 64.9 °F 52.0 °F 63% 30.01 in 10.0 mi NW 10.4 mph - N/A   Clear